Location: Unspecified
(0.0000°N, 0.0000°E)
Time: 06:32:40
(UTC+00:00)

Courier 1B Rocket - Pass Details

Date: 20 November 2019
Orbit: 920 x 1202 km, 28.2° (Epoch: 10 December)

Event Time Altitude Azimuth Distance (km) Brightness Sun altitude
Rises 09:33:16 0° 230° (SW) 3,550 7.8 52.1°
Reaches altitude 10° 09:35:56 10° 225° (SW) 2,607 7.3 52.7°
Maximum altitude 09:41:57 50° 150° (SSE) 1,168 7.4 53.9°
Drops below altitude 10° 09:48:10 10° 76° (ENE) 2,688 7.8 55.2°
Sets 09:50:57 0° 71° (ENE) 3,670 8.3 55.7°
